AirNav   Air Wisconsin Up To $57,000 Bonus
 
 1101 users online  

PN11 Reno Airport
Enon Valley, Pennsylvania, USA

GOING TO ENON VALLEY?


FAA INFORMATION EFFECTIVE 01 DECEMBER 2022

Location

FAA Identifier: PN11
Lat/Long: 40-53-23.2220N 080-29-11.2430W
40-53.387033N 080-29.187383W
40.8897839,-80.4864564
(estimated)
Elevation: 1160 ft. / 354 m (estimated)
Variation: 07W (1985)
From city: 3 miles NE of ENON VALLEY, PA
Time zone: UTC -5 (UTC -4 during Daylight Saving Time)
Zip code: 16120

Airport Operations

Airport use: Private use. Permission required prior to landing
Control tower: no
ARTCC: CLEVELAND CENTER
FSS: ALTOONA FLIGHT SERVICE STATION
Attendance: UNATNDD
Wind indicator: no
Segmented circle: no

Airport Communications

WX AWOS-3PT at BVI (8 nm SE): 118.35 (724-843-1024)
WX AWOS-3PT at UCP (9 nm N): 124.175 ((724) 652-4184)
WX AWOS-3PT at PJC (16 nm E): 118.45 (724-452-5304)

Nearby radio navigation aids

VOR radial/distance  VOR name  Freq  Var
EWCr295/13.1ELLWOOD CITY VOR/DME115.8008W
YNGr167/27.8YOUNGSTOWN VORTAC109.0005W
ACOr116/34.9AKRON VOR/DME114.4004W
HLGr013/38.0WHEELING VOR/DME114.2507W

 
NDB name  Hdg/Dist  Freq  Var  ID
CASTLE211/8.627209WUCP ..- -.-. .--.

Airport Services

Airframe service: NONE
Powerplant service: NONE

Runway Information

Runway 9/27

Dimensions: 2100 x 120 ft. / 640 x 37 m
Surface: turf
RUNWAY 9  RUNWAY 27
Traffic pattern: leftleft

Airport Ownership and Management from official FAA records

Ownership: Privately-owned
Owner: ROBERT D. RENO
202 RENO LN
ENON VALLEY, PA 16120
Phone 412-336-6631
Manager: ROBERT D. RENO
202 RENO LN
ENON VALLEY, PA 16120
Phone 412-336-6631

Airport Operational Statistics

Aircraft based on the field: 1
Single engine airplanes: 1
    

Additional Remarks

FOR CD CTC PITTSBURGH APCH AT 412-472-5591

Instrument Procedures

There are no published instrument procedures at PN11.

Some nearby airports with instrument procedures:

KBVI - Beaver County Airport (8 nm SE)
KUCP - New Castle Municipal Airport (9 nm N)
4G4 - Youngstown Elser Metro Airport (10 nm NW)
02G - Columbiana County Airport (15 nm SW)
KPJC - Zelienople Municipal Airport (16 nm E)
38D - Salem Airpark Inc (17 nm W)
 
Loc | Ops | Rwys | IFR | FBO | Links
Com | Nav | Svcs | Stats | Notes
Area around PN11 (Reno Airport)
 
Road maps at: MapQuest Bing Google
 
Aerial photo
No photo
 
Sectional chart

 
Airport distance calculator
Flying to Reno Airport? Find the distance to fly.

From to PN11

Sunrise and sunset
Times for 06-Dec-2022
 Local
(UTC-5)
 Zulu
(UTC)
Morning civil twilight07:0212:02
Sunrise07:3312:33
Sunset16:5321:53
Evening civil twilight17:2422:24

Current date and time
Zulu (UTC)  07-Dec-2022 03:14:45
Local (UTC-5)  06-Dec-2022 22:14:45
 
METAR
KBVI 
8nm SE 
070255Z AUTO 15004KT 1/4SM FG OVC003 09/08 A3005 RMK AO2 T00900080
KUCP 
9nm N 
070256Z AUTO 00000KT 1SM -RA BR OVC002 07/07 A3006 RMK AO2 SLP199 P0001 60001 T00720072 53001 RVRNO
KPJC 
16nm E 
070255Z AUTO 00000KT 1SM BR OVC002 07/07 A3005 RMK AO2
TAF
KBVI 
8nm SE 
062058Z 0621/0718 12003KT 1/4SM -RADZ FG VV002 FM070200 18003KT 3/4SM -DZ BR OVC002 FM071600 34003KT 1SM BR VCSH OVC003
NOTAMs
Click for the latest NOTAMs
NOTAMs are issued by the DoD/FAA and will open in a separate window not controlled by AirNav.

 

 
 

Would you like to see your business listed on this page?

 If your business provides an interesting product or service to pilots, flight crews, aircraft, or users of the Reno Airport, you should consider listing it here.  To start the listing process, click on the button below
 
Add a business
 

Other Pages about Reno Airport

Update a link
 
Copyright © AirNav, LLC. All rights reserved. Privacy Policy  Contact